Regional Weather Roundup
Issued by NWS Cleveland, OH

Home | Current Version | Previous Version | Text Only | Print | Product List | Glossary Off
Versions: 1 2 3 4 5 6 7 8 9 10 11 12 13 14 15 16 17 18 19 20 21 22 23 24 25 26 27 28 29 30 31 32 33 34 35 36 37 38 39 40 41 42 43 44 45 46 47 48 49 50

000
ASUS41 KCLE 291802
RWRCLE
OHIO REGIONAL WEATHER ROUNDUP
NATIONAL WEATHER SERVICE CLEVELAND, OH
200 PM EDT MON JUN 29 2015

NOTE: "FAIR" INDICATES FEW OR NO CLOUDS BELOW 12,000 FEET WITH NO
SIGNIFICANT WEATHER AND/OR OBSTRUCTIONS TO VISIBILITY.

OHZ001>008-015>018-024>027-034-035-043-044-291900-
   NORTHWEST OHIO

CITY           SKY/WX    TMP DP  RH WIND       PRES   REMARKS
DEFIANCE       CLOUDY    64  57  78 SE12      29.88S
FINDLAY        CLOUDY    65  60  84 E10       29.86F
TOLEDO EXPRESS MOSUNNY   70  59  68 S12G20    29.89S
TOLEDO EXEC    PTSUNNY   67  57  70 S17       29.90F
LIMA           LGT RAIN  61  58  90 E12       29.86S FOG
$$

OHZ009>014-019>023-028>033-038-089-291900-
   NORTHEAST OHIO

CITY           SKY/WX    TMP DP  RH WIND       PRES   REMARKS
CLE-HOPKINS    LGT RAIN  66  60  81 S6        29.94F
CLE-LAKEFRONT  LGT RAIN  69  57  65 S14G21    29.91F
CUY CO. ARPT   CLOUDY    70  59  68 SW12      29.94S
LORAIN-ELYRIA  LGT RAIN  65  61  87 S7        29.92F
ASHTABULA      CLOUDY    73  58  59 S8        29.94S
AKRON-CANTON   LGT RAIN  67  60  78 S5        29.95S
WOOSTER        LGT RAIN  64  61  90 E5        29.94F
MANSFIELD      CLOUDY    62  59  90 SE10      29.92F
YOUNGSTOWN     CLOUDY    70  58  65 SW7       29.95S
$$

OHZ042-051>053-060>062-070>072-077>081-291900-
  SOUTHWEST OHIO

CITY           SKY/WX    TMP DP  RH WIND       PRES   REMARKS
CINC-COVINGTON MOSUNNY   74  67  78 SW7       29.83S
CINC-LUNKEN    CLOUDY    68  65  90 S3        29.83F
HAMILTON       CLOUDY    68  64  87 VRB3      29.83F
DAYTON         CLOUDY    63  61  93 SE8       29.84F FOG
WRIGHT-PAT AFB NOT AVBL
DAYTON GENERAL CLOUDY    64  63  96 S8        29.83F
WILMINGTON     LGT RAIN  64  60  87 S12       29.85S
$$

OHZ036-037-039>041-045>050-054>059-063>069-073>076-082>088-291900-
  CENTRAL AND SOUTHEAST OHIO

CITY           SKY/WX    TMP DP  RH WIND       PRES   REMARKS
COLUMBUS       RAIN      62  60  93 SE13G18   29.87F FOG
OSU AIRPORT    LGT RAIN  62  60  93 SE14      29.87F
BOLTON FIELD   RAIN      61  61 100 E8G18     29.87F FOG
RICKENBACK AFB NOT AVBL
NEWARK         LGT RAIN  65  60  84 SE9       29.90F
MARION         CLOUDY    63  58  83 SE13      29.89F
LANCASTER      CLOUDY    65  60  84 SE12      29.89F
ZANESVILLE     NOT AVBL
NEW PHILLY     LGT RAIN  69  63  81 CALM      29.94S
$$



USA.gov is the U.S. government's official web portal to all federal, state and local government web resources and services.